,,Stat6,,Stat2,,Stat8,,Stat9,,Stat10,,Wind1,,Wind1,
time,status,PA1M_AVG,status,PR1M_SUM,status,RH1M_AVG,status,SR1M_AVG,status,TA1M_AVG,status,W1dAve1m,status,W1sAve1m,
2009-01-30, 00:00:01,VALID,917.657,VALID,0,VALID,100,VALID,0,VALID,18.5437,VALID,93,VALID,0,
2009-01-30, 00:01:01,VALID,917.647,VALID,0,VALID,100,VALID,0,VALID,18.5347,VALID,99,VALID,0,
2009-01-30, 00:02:01,VALID,917.646,VALID,0,VALID,100,VALID,-0.0339617,VALID,18.5342,VALID,99,VALID,0,
2009-01-30, 00:03:01,VALID,917.629,VALID,0,VALID,100,VALID,-0.0169808,VALID,18.5377,VALID,70,VALID,0,
2009-01-30, 00:04:00,VALID,917.612,VALID,0,VALID,100,VALID,0,VALID,18.5342,VALID,68,VALID,0.0012429,
2009-01-30, 00:05:01,VALID,917.61,VALID,0,VALID,100,VALID,0,VALID,18.5372,VALID,55,VALID,0,
2009-01-30, 00:06:01,VALID,917.606,VALID,0,VALID,100,VALID,0,VALID,18.5405,VALID,56,VALID,0,
2009-01-30, 00:07:01,VALID,917.61,VALID,0,VALID,100,VALID,0,VALID,18.5502,VALID,41,VALID,0.031808,
2009-01-30, 00:08:01,VALID,917.592,VALID,0,VALID,100,VALID,-0.0169808,VALID,18.5736,VALID,34,VALID,0,
2009-01-30, 00:09:01,VALID,917.581,VALID,0,VALID,100,VALID,-0.0339617,VALID,18.5669,VALID,34,VALID,0,
2009-01-30, 00:10:01,VALID,917.566,VALID,0,VALID,100,VALID,0,VALID,18.5639,VALID,332,VALID,0,
2009-01-30, 00:11:01,VALID,917.558,VALID,0.2,VALID,100,VALID,-0.0339617,VALID,18.5799,VALID,228,VALID,0,
2009-01-30, 00:12:01,VALID,917.545,VALID,0,VALID,100,VALID,0,VALID,18.5891,VALID,228,VALID,0,
2009-01-30, 00:13:01,VALID,917.533,VALID,0,VALID,100,VALID,0,VALID,18.5699,VALID,220,VALID,0,
2009-01-30, 00:14:01,VALID,917.506,VALID,0,VALID,100,VALID,0,VALID,18.5083,VALID,207,VALID,0,
2009-01-30, 00:15:01,VALID,917.494,VALID,0,VALID,100,VALID,-0.0169808,VALID,18.4629,VALID,59,VALID,0,
2009-01-30, 00:16:01,VALID,917.487,VALID,0,VALID,100,VALID,0,VALID,18.4629,VALID,34,VALID,0.0330669,
2009-01-30, 00:17:01,VALID,917.474,VALID,0,VALID,100,VALID,-0.0169808,VALID,18.4657,VALID,40,VALID,0,
2009-01-30, 00:18:01,VALID,917.461,VALID,0,VALID,100,VALID,0,VALID,18.5048,VALID,40,VALID,0,
2009-01-30, 00:19:00,VALID,917.463,VALID,0,VALID,100,VALID,0,VALID,18.544,VALID,40,VALID,0,
2009-01-30, 00:20:00,VALID,917.467,VALID,0,VALID,100,VALID,0,VALID,18.5403,VALID,40,VALID,0,
2009-01-30, 00:21:00,VALID,917.467,VALID,0,VALID,100,VALID,-0.0169808,VALID,18.5505,VALID,35,VALID,0,
2009-01-30, 00:22:00,VALID,917.453,VALID,0,VALID,100,VALID,-0.0169808,VALID,18.5637,VALID,31,VALID,0,
2009-01-30, 00:23:00,VALID,917.444,VALID,0,VALID,100,VALID,-0.101885,VALID,18.5412,VALID,31,VALID,0,
2009-01-30, 00:24:00,VALID,917.436,VALID,0,VALID,100,VALID,-0.0339617,VALID,18.5155,VALID,25,VALID,0,
2009-01-30, 00:25:00,VALID,917.413,VALID,0,VALID,100,VALID,-0.0679233,VALID,18.509,VALID,10,VALID,0.0777616,
2009-01-30, 00:26:00,VALID,917.422,VALID,0,VALID,100,VALID,-0.0679233,VALID,18.5252,VALID,321,VALID,0.00142045,
2009-01-30, 00:27:00,VALID,917.393,VALID,0,VALID,100,VALID,-0.0849042,VALID,18.5185,VALID,312,VALID,0,
2009-01-30, 00:28:00,VALID,917.402,VALID,0,VALID,100,VALID,-0.0679233,VALID,18.512,VALID,328,VALID,0,
2009-01-30, 00:29:00,VALID,917.417,VALID,0,VALID,100,VALID,-0.0679233,VALID,18.5185,VALID,263,VALID,0.13125,
2009-01-30, 00:30:00,VALID,917.391,VALID,0,VALID,100,VALID,-0.0849042,VALID,18.5055,VALID,289,VALID,0.00727983,
2009-01-30, 00:31:00,VALID,917.376,VALID,0,VALID,100,VALID,-0.101885,VALID,18.5384,VALID,267,VALID,0.0158203,
2009-01-30, 00:32:00,VALID,917.384,VALID,0,VALID,100,VALID,-0.118866,VALID,18.5512,VALID,257,VALID,0,
2009-01-30, 00:33:00,VALID,917.379,VALID,0,VALID,100,VALID,-0.0849042,VALID,18.5706,VALID,278,VALID,0,
2009-01-30, 00:34:00,VALID,917.375,VALID,0,VALID,100,VALID,-0.118866,VALID,18.5607,VALID,278,VALID,0.156822,
2009-01-30, 00:35:00,VALID,917.369,VALID,0,VALID,100,VALID,-0.0679233,VALID,18.5345,VALID,261,VALID,0.339757,
2009-01-30, 00:36:00,VALID,917.362,VALID,0,VALID,100,VALID,-0.0509425,VALID,18.5769,VALID,284,VALID,0.0600818,
2009-01-30, 00:37:00,VALID,917.359,VALID,0,VALID,100,VALID,-0.0509425,VALID,18.6223,VALID,250,VALID,0.00241815,
2009-01-30, 00:38:00,VALID,917.359,VALID,0,VALID,100,VALID,-0.0509425,VALID,18.658,VALID,249,VALID,0,
2009-01-30, 00:39:00,VALID,917.351,VALID,0,VALID,100,VALID,-0.101885,VALID,18.6777,VALID,263,VALID,0,
2009-01-30, 00:40:00,VALID,917.342,VALID,0,VALID,100,VALID,-0.0509425,VALID,18.6872,VALID,8,VALID,0,
2009-01-30, 00:41:00,VALID,917.341,VALID,0,VALID,100,VALID,-0.0339617,VALID,18.6841,VALID,13,VALID,0.00181686,
2009-01-30, 00:42:00,VALID,917.343,VALID,0,VALID,100,VALID,-0.0679233,VALID,18.658,VALID,13,VALID,0,
2009-01-30, 00:43:00,VALID,917.32,VALID,0,VALID,100,VALID,-0.0849042,VALID,18.6517,VALID,13,VALID,0,
2009-01-30, 00:44:00,VALID,917.329,VALID,0,VALID,100,VALID,-0.0679233,VALID,18.658,VALID,12,VALID,0,
2009-01-30, 00:45:00,VALID,917.322,VALID,0,VALID,100,VALID,-0.0679233,VALID,18.6515,VALID,242,VALID,0,
2009-01-30, 00:46:00,VALID,917.309,VALID,0.2,VALID,100,VALID,-0.0679233,VALID,18.6355,VALID,251,VALID,0,
2009-01-30, 00:47:00,VALID,917.303,VALID,0,VALID,100,VALID,-0.0849042,VALID,18.6519,VALID,261,VALID,0,
2009-01-30, 00:48:00,VALID,917.292,VALID,0,VALID,100,VALID,-0.0509425,VALID,18.6482,VALID,255,VALID,0,
2009-01-30, 00:49:00,VALID,917.284,VALID,0,VALID,100,VALID,-0.0339617,VALID,18.661,VALID,253,VALID,0,
2009-01-30, 00:50:00,VALID,917.268,VALID,0,VALID,100,VALID,-0.0339617,VALID,18.6802,VALID,253,VALID,0,
2009-01-30, 00:51:00,VALID,917.25,VALID,0,VALID,100,VALID,-0.0679233,VALID,18.6971,VALID,253,VALID,0,
2009-01-30, 00:52:00,VALID,917.229,VALID,0,VALID,100,VALID,-0.0169808,VALID,18.6904,VALID,258,VALID,0,
2009-01-30, 00:53:00,VALID,917.217,VALID,0,VALID,100,VALID,-0.0679233,VALID,18.6705,VALID,312,VALID,0,
2009-01-30, 00:54:00,VALID,917.224,VALID,0,VALID,100,VALID,-0.0169808,VALID,18.6934,VALID,14,VALID,0,
2009-01-30, 00:55:00,VALID,917.222,VALID,0,VALID,100,VALID,-0.0169808,VALID,18.7131,VALID,14,VALID,0,
2009-01-30, 00:56:00,VALID,917.217,VALID,0,VALID,100,VALID,-0.0169808,VALID,18.7159,VALID,5,VALID,0.0632102,
2009-01-30, 00:57:00,VALID,917.23,VALID,0,VALID,100,VALID,0,VALID,18.7258,VALID,351,VALID,0,
2009-01-30, 00:58:00,VALID,917.223,VALID,0,VALID,100,VALID,-0.0509425,VALID,18.6837,VALID,348,VALID,0,
2009-01-30, 00:59:00,VALID,917.232,VALID,0,VALID,100,VALID,-0.0169808,VALID,18.661,VALID,349,VALID,0,
2009-01-30, 01:00:00,VALID,917.244,VALID,0,VALID,100,VALID,-0.0169808,VALID,18.645,VALID,355,VALID,0,
2009-01-30, 01:01:00,VALID,917.248,VALID,0,VALID,100,VALID,-0.0169808,VALID,18.6248,VALID,355,VALID,0,
2009-01-30, 01:02:00,VALID,917.261,VALID,0,VALID,100,VALID,-0.0169808,VALID,18.6378,VALID,355,VALID,0,
2009-01-30, 01:03:00,VALID,917.265,VALID,0,VALID,100,VALID,0,VALID,18.635,VALID,355,VALID,0,
2009-01-30, 01:04:00,VALID,917.242,VALID,0,VALID,100,VALID,-0.0169808,VALID,18.6285,VALID,360,VALID,0,
2009-01-30, 01:05:00,VALID,917.236,VALID,0,VALID,100,VALID,-0.0169808,VALID,18.6253,VALID,12,VALID,0.0499238,
2009-01-30, 01:06:00,VALID,917.236,VALID,0,VALID,100,VALID,0,VALID,18.6054,VALID,17,VALID,0.00104167,
2009-01-30, 01:07:00,VALID,917.227,VALID,0,VALID,100,VALID,0,VALID,18.5896,VALID,39,VALID,0.0487805,
2009-01-30, 01:08:00,VALID,917.219,VALID,0,VALID,100,VALID,-0.0169808,VALID,18.5996,VALID,35,VALID,0.00230824,
2009-01-30, 01:09:00,VALID,917.207,VALID,0,VALID,100,VALID,0,VALID,18.6158,VALID,39,VALID,0,
2009-01-30, 01:10:00,VALID,917.206,VALID,0,VALID,100,VALID,-0.0679233,VALID,18.6091,VALID,41,VALID,0,
2009-01-30, 01:11:00,VALID,917.181,VALID,0,VALID,100,VALID,-0.0339617,VALID,18.5834,VALID,50,VALID,0,
2009-01-30, 01:12:00,VALID,917.179,VALID,0,VALID,100,VALID,-0.0339617,VALID,18.5697,VALID,50,VALID,0,
2009-01-30, 01:13:00,VALID,917.165,VALID,0,VALID,100,VALID,-0.0339617,VALID,18.5931,VALID,50,VALID,0,
2009-01-30, 01:14:00,VALID,917.164,VALID,0,VALID,100,VALID,0,VALID,18.5996,VALID,50,VALID,0,
2009-01-30, 01:15:00,VALID,917.163,VALID,0,VALID,100,VALID,-0.0169808,VALID,18.6023,VALID,36,VALID,0,
2009-01-30, 01:16:00,VALID,917.169,VALID,0,VALID,100,VALID,-0.0169808,VALID,18.6251,VALID,28,VALID,0,
2009-01-30, 01:17:00,VALID,917.161,VALID,0,VALID,100,VALID,-0.0339617,VALID,18.6612,VALID,28,VALID,0,
2009-01-30, 01:18:00,VALID,917.145,VALID,0.2,VALID,100,VALID,-0.0849042,VALID,18.6772,VALID,28,VALID,0,
2009-01-30, 01:19:00,VALID,917.127,VALID,0,VALID,100,VALID,0,VALID,18.7064,VALID,28,VALID,0,
2009-01-30, 01:20:00,VALID,917.137,VALID,0,VALID,100,VALID,-0.0509425,VALID,18.7066,VALID,28,VALID,0,
2009-01-30, 01:21:00,VALID,917.13,VALID,0,VALID,100,VALID,-0.0509425,VALID,18.6999,VALID,25,VALID,0.0359003,
2009-01-30, 01:22:00,VALID,917.134,VALID,0,VALID,100,VALID,0,VALID,18.6834,VALID,24,VALID,0,
2009-01-30, 01:23:00,VALID,917.119,VALID,0,VALID,100,VALID,0,VALID,18.6637,VALID,25,VALID,0.00114329,
2009-01-30, 01:24:00,VALID,917.1,VALID,0,VALID,100,VALID,0,VALID,18.6341,VALID,27,VALID,0.0482088,
2009-01-30, 01:25:00,VALID,917.102,VALID,0,VALID,100,VALID,0.0169808,VALID,18.6468,VALID,21,VALID,0.030506,
2009-01-30, 01:26:00,VALID,917.106,VALID,0,VALID,100,VALID,0.0339617,VALID,18.647,VALID,18,VALID,0,
2009-01-30, 01:27:00,VALID,917.093,VALID,0,VALID,100,VALID,-0.0339617,VALID,18.6376,VALID,18,VALID,0,
2009-01-30, 01:28:00,VALID,917.082,VALID,0,VALID,100,VALID,0,VALID,18.657,VALID,18,VALID,0,
2009-01-30, 01:29:00,VALID,917.073,VALID,0,VALID,100,VALID,0,VALID,18.6735,VALID,18,VALID,0,
2009-01-30, 01:30:00,VALID,917.072,VALID,0,VALID,100,VALID,0,VALID,18.6373,VALID,260,VALID,0.0915698,
2009-01-30, 01:31:00,VALID,917.064,VALID,0,VALID,100,VALID,0,VALID,18.6403,VALID,240,VALID,0,
2009-01-30, 01:32:00,VALID,917.056,VALID,0,VALID,100,VALID,0,VALID,18.7027,VALID,266,VALID,0,
2009-01-30, 01:33:00,VALID,917.051,VALID,0,VALID,100,VALID,0,VALID,18.7506,VALID,281,VALID,0,
2009-01-30, 01:34:00,VALID,917.057,VALID,0,VALID,100,VALID,0,VALID,18.7673,VALID,283,VALID,0,
2009-01-30, 01:35:00,VALID,917.071,VALID,0,VALID,100,VALID,0,VALID,18.7606,VALID,276,VALID,0,
2009-01-30, 01:36:00,VALID,917.073,VALID,0,VALID,100,VALID,0.0339617,VALID,18.7833,VALID,276,VALID,0,
2009-01-30, 01:37:00,VALID,917.05,VALID,0,VALID,100,VALID,0.0169808,VALID,18.7837,VALID,286,VALID,0,
2009-01-30, 01:38:00,VALID,917.052,VALID,0,VALID,100,VALID,0,VALID,18.7805,VALID,303,VALID,0,
2009-01-30, 01:39:00,VALID,917.046,VALID,0,VALID,100,VALID,-0.0339617,VALID,18.7902,VALID,303,VALID,0,
2009-01-30, 01:40:00,VALID,917.041,VALID,0,VALID,100,VALID,0,VALID,18.8004,VALID,304,VALID,0,
2009-01-30, 01:41:00,VALID,917.038,VALID,0.2,VALID,100,VALID,-0.0169808,VALID,18.8099,VALID,304,VALID,0,
2009-01-30, 01:42:00,VALID,917.031,VALID,0,VALID,100,VALID,0,VALID,18.8167,VALID,304,VALID,0,
2009-01-30, 01:43:00,VALID,917.022,VALID,0,VALID,100,VALID,-0.0169808,VALID,18.8199,VALID,304,VALID,0,
2009-01-30, 01:44:00,VALID,917.026,VALID,0,VALID,100,VALID,0,VALID,18.8296,VALID,304,VALID,0,
2009-01-30, 01:45:00,VALID,917.007,VALID,0,VALID,100,VALID,-0.0169808,VALID,18.8199,VALID,304,VALID,0,
2009-01-30, 01:46:00,VALID,917.001,VALID,0,VALID,100,VALID,-0.0339617,VALID,18.8234,VALID,308,VALID,0,
2009-01-30, 01:47:00,VALID,916.98,VALID,0,VALID,100,VALID,0,VALID,18.8129,VALID,309,VALID,0,
2009-01-30, 01:48:00,VALID,916.969,VALID,0,VALID,100,VALID,-0.0509425,VALID,18.8201,VALID,309,VALID,0,
2009-01-30, 01:49:00,VALID,916.95,VALID,0,VALID,100,VALID,-0.0169808,VALID,18.8201,VALID,309,VALID,0,
2009-01-30, 01:50:00,VALID,916.952,VALID,0,VALID,100,VALID,-0.0169808,VALID,18.7967,VALID,309,VALID,0,
2009-01-30, 01:51:00,VALID,916.931,VALID,0,VALID,100,VALID,-0.0679233,VALID,18.7747,VALID,309,VALID,0,
2009-01-30, 01:52:00,VALID,916.927,VALID,0,VALID,100,VALID,-0.0169808,VALID,18.7518,VALID,309,VALID,0,
2009-01-30, 01:53:00,VALID,916.906,VALID,0,VALID,100,VALID,-0.0339617,VALID,18.7096,VALID,309,VALID,0,
2009-01-30, 01:54:00,VALID,916.905,VALID,0,VALID,100,VALID,-0.0339617,VALID,18.6929,VALID,309,VALID,0,
2009-01-30, 01:55:00,VALID,916.894,VALID,0,VALID,100,VALID,0,VALID,18.6962,VALID,309,VALID,0,
2009-01-30, 01:56:00,VALID,916.891,VALID,0,VALID,100,VALID,-0.0169808,VALID,18.6932,VALID,309,VALID,0,
2009-01-30, 01:57:00,VALID,916.873,VALID,0,VALID,100,VALID,-0.0169808,VALID,18.664,VALID,309,VALID,0,
2009-01-30, 01:58:00,VALID,916.853,VALID,0,VALID,100,VALID,-0.0339617,VALID,18.654,VALID,309,VALID,0,
2009-01-30, 01:59:00,VALID,916.838,VALID,0,VALID,100,VALID,0,VALID,18.6508,VALID,309,VALID,0,
2009-01-30, 02:00:00,VALID,916.817,VALID,0,VALID,100,VALID,0,VALID,18.6573,VALID,309,VALID,0,
2009-01-30, 02:01:00,VALID,916.812,VALID,0,VALID,100,VALID,-0.0169808,VALID,18.6415,VALID,309,VALID,0,
2009-01-30, 02:02:00,VALID,916.788,VALID,0,VALID,100,VALID,-0.0169808,VALID,18.6318,VALID,343,VALID,0,
2009-01-30, 02:03:00,VALID,916.771,VALID,0,VALID,100,VALID,-0.0169808,VALID,18.6281,VALID,8,VALID,0,
2009-01-30, 02:04:00,VALID,916.764,VALID,0,VALID,100,VALID,-0.0339617,VALID,18.6383,VALID,13,VALID,0,
2009-01-30, 02:05:00,VALID,916.757,VALID,0,VALID,100,VALID,-0.0339617,VALID,18.6285,VALID,13,VALID,0,
2009-01-30, 02:06:00,VALID,916.746,VALID,0,VALID,100,VALID,-0.0169808,VALID,18.6253,VALID,13,VALID,0,
2009-01-30, 02:07:00,VALID,916.741,VALID,0,VALID,100,VALID,0,VALID,18.6116,VALID,13,VALID,0,
2009-01-30, 02:08:00,VALID,916.733,VALID,0,VALID,100,VALID,-0.0169808,VALID,18.5954,VALID,13,VALID,0,
2009-01-30, 02:09:00,VALID,916.725,VALID,0,VALID,100,VALID,-0.0339617,VALID,18.5926,VALID,13,VALID,0,
2009-01-30, 02:10:00,VALID,916.725,VALID,0,VALID,100,VALID,0,VALID,18.5921,VALID,13,VALID,0,
2009-01-30, 02:11:00,VALID,916.719,VALID,0,VALID,100,VALID,-0.0169808,VALID,18.5959,VALID,13,VALID,0,
2009-01-30, 02:12:00,VALID,916.706,VALID,0,VALID,100,VALID,0,VALID,18.5859,VALID,13,VALID,0,
2009-01-30, 02:13:00,VALID,916.693,VALID,0,VALID,100,VALID,0,VALID,18.5894,VALID,13,VALID,0,
2009-01-30, 02:14:00,VALID,916.692,VALID,0,VALID,100,VALID,-0.0339617,VALID,18.6061,VALID,13,VALID,0,
2009-01-30, 02:15:00,VALID,916.698,VALID,0,VALID,100,VALID,0.0169808,VALID,18.5984,VALID,13,VALID,0,
2009-01-30, 02:16:00,VALID,916.708,VALID,0,VALID,100,VALID,0,VALID,18.6081,VALID,13,VALID,0,
2009-01-30, 02:17:00,VALID,916.707,VALID,0,VALID,100,VALID,0,VALID,18.6021,VALID,12,VALID,0,
2009-01-30, 02:18:00,VALID,916.691,VALID,0,VALID,100,VALID,-0.0169808,VALID,18.5991,VALID,11,VALID,0,
2009-01-30, 02:19:00,VALID,916.694,VALID,0,VALID,100,VALID,-0.0169808,VALID,18.6058,VALID,11,VALID,0,
2009-01-30, 02:20:00,VALID,916.698,VALID,0,VALID,100,VALID,0,VALID,18.6121,VALID,2,VALID,0,
2009-01-30, 02:21:00,VALID,916.69,VALID,0,VALID,100,VALID,-0.0339617,VALID,18.5963,VALID,358,VALID,0,
2009-01-30, 02:22:00,VALID,916.674,VALID,0,VALID,100,VALID,-0.0169808,VALID,18.5792,VALID,358,VALID,0,
2009-01-30, 02:23:00,VALID,916.672,VALID,0,VALID,100,VALID,0,VALID,18.5796,VALID,337,VALID,0,
2009-01-30, 02:24:00,VALID,916.639,VALID,0,VALID,100,VALID,0,VALID,18.5799,VALID,305,VALID,0,
2009-01-30, 02:25:00,VALID,916.612,VALID,0,VALID,100,VALID,0,VALID,18.5734,VALID,305,VALID,0,
2009-01-30, 02:26:00,VALID,916.605,VALID,0,VALID,100,VALID,0,VALID,18.5634,VALID,305,VALID,0,
2009-01-30, 02:27:00,VALID,916.603,VALID,0,VALID,100,VALID,-0.0169808,VALID,18.5639,VALID,305,VALID,0,
2009-01-30, 02:28:00,VALID,916.585,VALID,0,VALID,100,VALID,0,VALID,18.5599,VALID,305,VALID,0,
2009-01-30, 02:29:00,VALID,916.587,VALID,0,VALID,100,VALID,-0.0169808,VALID,18.5637,VALID,305,VALID,0,
2009-01-30, 02:30:00,VALID,916.572,VALID,0,VALID,100,VALID,-0.0339617,VALID,18.5537,VALID,305,VALID,0,
2009-01-30, 02:31:00,VALID,916.567,VALID,0,VALID,100,VALID,0,VALID,18.5567,VALID,305,VALID,0,
2009-01-30, 02:32:00,VALID,916.565,VALID,0,VALID,100,VALID,0,VALID,18.5667,VALID,305,VALID,0,
2009-01-30, 02:33:00,VALID,916.575,VALID,0,VALID,100,VALID,0,VALID,18.5861,VALID,305,VALID,0,
2009-01-30, 02:34:00,VALID,916.586,VALID,0,VALID,100,VALID,-0.0169808,VALID,18.5766,VALID,305,VALID,0,
2009-01-30, 02:35:00,VALID,916.596,VALID,0,VALID,100,VALID,0,VALID,18.5632,VALID,305,VALID,0,
2009-01-30, 02:36:00,VALID,916.607,VALID,0,VALID,100,VALID,-0.0169808,VALID,18.5599,VALID,305,VALID,0,
2009-01-30, 02:37:00,VALID,916.608,VALID,0,VALID,100,VALID,0,VALID,18.5898,VALID,305,VALID,0,
2009-01-30, 02:38:00,VALID,916.617,VALID,0,VALID,100,VALID,-0.101885,VALID,18.5903,VALID,305,VALID,0,
2009-01-30, 02:39:00,VALID,916.608,VALID,0,VALID,100,VALID,-0.0679233,VALID,18.6035,VALID,305,VALID,0,
2009-01-30, 02:40:00,VALID,916.614,VALID,0,VALID,100,VALID,-0.0849042,VALID,18.6033,VALID,305,VALID,0,
2009-01-30, 02:41:00,VALID,916.604,VALID,0,VALID,100,VALID,-0.101885,VALID,18.6003,VALID,305,VALID,0,
2009-01-30, 02:42:00,VALID,916.591,VALID,0,VALID,100,VALID,-0.118866,VALID,18.5709,VALID,305,VALID,0,
2009-01-30, 02:43:00,VALID,916.585,VALID,0,VALID,100,VALID,-0.0849042,VALID,18.5614,VALID,305,VALID,0,
2009-01-30, 02:44:00,VALID,916.575,VALID,0,VALID,100,VALID,-0.101885,VALID,18.5454,VALID,305,VALID,0,
2009-01-30, 02:45:00,VALID,916.571,VALID,0,VALID,100,VALID,-0.101885,VALID,18.5224,VALID,305,VALID,0,
2009-01-30, 02:46:00,VALID,916.555,VALID,0,VALID,100,VALID,-0.118866,VALID,18.5197,VALID,305,VALID,0,
2009-01-30, 02:47:00,VALID,916.556,VALID,0,VALID,100,VALID,-0.135847,VALID,18.5222,VALID,305,VALID,0,
2009-01-30, 02:48:00,VALID,916.553,VALID,0,VALID,100,VALID,-0.0849042,VALID,18.5322,VALID,305,VALID,0,
2009-01-30, 02:49:00,VALID,916.544,VALID,0,VALID,100,VALID,-0.135847,VALID,18.519,VALID,305,VALID,0,
2009-01-30, 02:50:00,VALID,916.544,VALID,0,VALID,100,VALID,-0.118866,VALID,18.5259,VALID,305,VALID,0,
2009-01-30, 02:51:00,VALID,916.531,VALID,0,VALID,100,VALID,-0.101885,VALID,18.5197,VALID,306,VALID,0,
2009-01-30, 02:52:00,VALID,916.543,VALID,0,VALID,100,VALID,-0.0849042,VALID,18.487,VALID,327,VALID,0,
2009-01-30, 02:53:00,VALID,916.542,VALID,0,VALID,100,VALID,0,VALID,18.4858,VALID,327,VALID,0,
2009-01-30, 02:54:00,VALID,916.542,VALID,0,VALID,100,VALID,0,VALID,18.4786,VALID,327,VALID,0,
2009-01-30, 02:55:00,VALID,916.542,VALID,0,VALID,100,VALID,0,VALID,18.4925,VALID,327,VALID,0,
2009-01-30, 02:56:00,VALID,916.531,VALID,0,VALID,100,VALID,0.0169808,VALID,18.4979,INVALID,360,VALID,0,
2009-01-30, 02:57:00,VALID,916.547,VALID,0,VALID,100,VALID,0,VALID,18.5206,INVALID,360,VALID,0,
2009-01-30, 02:58:00,VALID,916.55,VALID,0,VALID,100,VALID,0,VALID,18.5345,VALID,327,VALID,0,
2009-01-30, 02:59:00,VALID,916.553,VALID,0,VALID,100,VALID,0,VALID,18.543,VALID,327,VALID,0,
2009-01-30, 03:00:00,VALID,916.559,VALID,0,VALID,100,VALID,0,VALID,18.5599,VALID,327,VALID,0,
2009-01-30, 03:01:00,VALID,916.559,VALID,0,VALID,100,VALID,0,VALID,18.563,VALID,327,VALID,0,
2009-01-30, 03:02:00,VALID,916.561,VALID,0,VALID,100,VALID,0,VALID,18.5796,INVALID,360,VALID,0,
2009-01-30, 03:03:00,VALID,916.56,VALID,0,VALID,100,VALID,0.0169808,VALID,18.5829,INVALID,360,VALID,0,
2009-01-30, 03:04:00,VALID,916.565,VALID,0,VALID,100,VALID,0,VALID,18.5989,INVALID,360,VALID,0,
2009-01-30, 03:05:00,VALID,916.551,VALID,0,VALID,100,VALID,0,VALID,18.5989,INVALID,360,VALID,0,
2009-01-30, 03:06:00,VALID,916.547,VALID,0,VALID,100,VALID,0,VALID,18.5986,VALID,327,VALID,0,
2009-01-30, 03:07:00,VALID,916.539,VALID,0,VALID,100,VALID,0,VALID,18.5982,VALID,344,VALID,0,
2009-01-30, 03:08:00,VALID,916.525,VALID,0,VALID,100,VALID,0,VALID,18.5822,VALID,347,VALID,0,
2009-01-30, 03:09:00,VALID,916.515,VALID,0,VALID,100,VALID,0,VALID,18.6021,VALID,347,VALID,0,
2009-01-30, 03:10:00,VALID,916.501,VALID,0,VALID,100,VALID,0,VALID,18.5921,VALID,348,VALID,0,
2009-01-30, 03:11:00,VALID,916.504,VALID,0,VALID,100,VALID,0,VALID,18.5852,VALID,355,VALID,0,
2009-01-30, 03:12:00,VALID,916.503,VALID,0,VALID,100,VALID,0,VALID,18.5824,VALID,353,VALID,0,
2009-01-30, 03:13:00,VALID,916.496,VALID,0,VALID,100,VALID,0,VALID,18.5498,VALID,354,VALID,0.000347222,
2009-01-30, 03:14:00,VALID,916.497,VALID,0,VALID,100,VALID,0,VALID,18.5502,VALID,7,VALID,0.0093006,
2009-01-30, 03:15:00,VALID,916.507,VALID,0,VALID,100,VALID,0.0339617,VALID,18.5433,VALID,12,VALID,0.00243056,
2009-01-30, 03:16:00,VALID,916.503,VALID,0,VALID,100,VALID,0.0339617,VALID,18.5201,VALID,355,VALID,0.0998264,
2009-01-30, 03:17:00,VALID,916.49,VALID,0,VALID,100,VALID,0.0339617,VALID,18.5308,VALID,339,VALID,0.0450149,
2009-01-30, 03:18:00,VALID,916.473,VALID,0,VALID,100,VALID,0.0339617,VALID,18.5268,VALID,343,VALID,0,
2009-01-30, 03:19:00,VALID,916.468,VALID,0,VALID,100,VALID,0.0169808,VALID,18.5368,VALID,355,VALID,0,
2009-01-30, 03:20:00,VALID,916.461,VALID,0,VALID,100,VALID,0.0169808,VALID,18.5465,VALID,355,VALID,0,
2009-01-30, 03:21:00,VALID,916.445,VALID,0,VALID,100,VALID,0.0339617,VALID,18.5569,VALID,352,VALID,0,
2009-01-30, 03:22:00,VALID,916.442,VALID,0,VALID,100,VALID,0.0339617,VALID,18.543,VALID,348,VALID,0,
2009-01-30, 03:23:00,VALID,916.433,VALID,0,VALID,100,VALID,-0.0679233,VALID,18.5544,VALID,353,VALID,0,
2009-01-30, 03:24:00,VALID,916.436,VALID,0,VALID,100,VALID,-0.0849042,VALID,18.5447,VALID,358,VALID,0,
2009-01-30, 03:25:00,VALID,916.438,VALID,0,VALID,100,VALID,-0.101885,VALID,18.5444,VALID,358,VALID,0,
2009-01-30, 03:26:00,VALID,916.465,VALID,0,VALID,100,VALID,-0.0849042,VALID,18.5641,VALID,358,VALID,0,
2009-01-30, 03:27:00,VALID,916.478,VALID,0,VALID,100,VALID,-0.101885,VALID,18.5576,VALID,358,VALID,0,
2009-01-30, 03:28:00,VALID,916.498,VALID,0,VALID,100,VALID,-0.101885,VALID,18.5676,VALID,358,VALID,0,
2009-01-30, 03:29:00,VALID,916.509,VALID,0.2,VALID,100,VALID,-0.0849042,VALID,18.5674,VALID,358,VALID,0,
2009-01-30, 03:30:00,VALID,916.522,VALID,0,VALID,100,VALID,-0.101885,VALID,18.5607,VALID,358,VALID,0,
2009-01-30, 03:31:00,VALID,916.512,VALID,0,VALID,100,VALID,-0.101885,VALID,18.5671,VALID,358,VALID,0,
2009-01-30, 03:32:00,VALID,916.513,VALID,0,VALID,100,VALID,-0.101885,VALID,18.5871,VALID,358,VALID,0,
2009-01-30, 03:33:00,VALID,916.533,VALID,0,VALID,100,VALID,-0.118866,VALID,18.6031,VALID,359,VALID,0,
2009-01-30, 03:34:00,VALID,916.536,VALID,0,VALID,100,VALID,-0.101885,VALID,18.6232,VALID,359,VALID,0,
2009-01-30, 03:35:00,VALID,916.536,VALID,0,VALID,100,VALID,-0.101885,VALID,18.6225,VALID,359,VALID,0,
2009-01-30, 03:36:00,VALID,916.531,VALID,0,VALID,100,VALID,-0.101885,VALID,18.6322,VALID,359,VALID,0,
2009-01-30, 03:37:00,VALID,916.537,VALID,0,VALID,100,VALID,-0.101885,VALID,18.6292,VALID,359,VALID,0,
2009-01-30, 03:38:00,VALID,916.531,VALID,0,VALID,100,VALID,0,VALID,18.6213,VALID,359,VALID,0,
2009-01-30, 03:39:00,VALID,916.527,VALID,0,VALID,100,VALID,0,VALID,18.6144,VALID,359,VALID,0,
2009-01-30, 03:40:00,VALID,916.516,VALID,0,VALID,100,VALID,0,VALID,18.6183,VALID,359,VALID,0,
2009-01-30, 03:41:00,VALID,916.516,VALID,0,VALID,100,VALID,0,VALID,18.6216,VALID,3,VALID,0,
2009-01-30, 03:42:00,VALID,916.52,VALID,0,VALID,100,VALID,0,VALID,18.6313,VALID,13,VALID,0,
2009-01-30, 03:43:00,VALID,916.525,VALID,0,VALID,100,VALID,0,VALID,18.6341,VALID,15,VALID,0,
2009-01-30, 03:44:00,VALID,916.504,VALID,0,VALID,100,VALID,-0.0169808,VALID,18.6373,VALID,15,VALID,0,
2009-01-30, 03:45:00,VALID,916.486,VALID,0,VALID,100,VALID,-0.0169808,VALID,18.6274,VALID,17,VALID,0,
2009-01-30, 03:46:00,VALID,916.463,VALID,0,VALID,100,VALID,0,VALID,18.6243,VALID,26,VALID,0,
2009-01-30, 03:47:00,VALID,916.448,VALID,0,VALID,100,VALID,0,VALID,18.5824,VALID,24,VALID,0,
2009-01-30, 03:48:00,VALID,916.457,VALID,0,VALID,100,VALID,0,VALID,18.5562,VALID,18,VALID,0,
2009-01-30, 03:49:00,VALID,916.468,VALID,0,VALID,100,VALID,0,VALID,18.5625,VALID,19,VALID,0,
2009-01-30, 03:50:00,VALID,916.489,VALID,0,VALID,100,VALID,0,VALID,18.5597,VALID,31,VALID,0,
2009-01-30, 03:51:00,VALID,916.504,VALID,0,VALID,100,VALID,0,VALID,18.5403,VALID,297,VALID,0,
2009-01-30, 03:52:00,VALID,916.517,VALID,0,VALID,100,VALID,-0.0339617,VALID,18.5338,VALID,247,VALID,0,
2009-01-30, 03:53:00,VALID,916.509,VALID,0,VALID,100,VALID,0,VALID,18.5145,VALID,251,VALID,0,
2009-01-30, 03:54:00,VALID,916.506,VALID,0,VALID,100,VALID,0,VALID,18.4944,VALID,251,VALID,0,
2009-01-30, 03:55:00,VALID,916.489,VALID,0,VALID,100,VALID,0,VALID,18.4847,VALID,251,VALID,0,